This is the latest recevied weather packets stored in our database for station/object NI4CE-10. If no packets are shown the sender has not sent any weather packets the latest 10 day(s).
| Time | Temp. | Humidity | Pressure | Rain* | Wind** | Luminosity | Snow |
|---|---|---|---|---|---|---|---|
| 1777760764 | 21.67° C | 100% | 1013.8 hPa | 0.76 mm | - | - | - |
| 1777760552 | 21.67° C | 100% | 1014.2 hPa | 1.78 mm | - | - | - |
| 1777760464 | 21.67° C | 100% | 1014.2 hPa | 1.78 mm | - | - | - |
| 1777760164 | 21.67° C | 100% | 1014.3 hPa | 1.78 mm | - | - | - |
| 1777759864 | 21.67° C | 100% | 1013.8 hPa | 2.03 mm | - | - | - |
| 1777759564 | 21.67° C | 100% | 1014 hPa | 2.29 mm | - | - | - |
| 1777759264 | 21.11° C | 100% | 1014.2 hPa | 3.05 mm | - | - | - |
| 1777758964 | 21.67° C | 100% | 1014 hPa | 3.81 mm | - | - | - |
| 1777758664 | 21.11° C | 100% | 1014.2 hPa | 9.14 mm | - | - | - |
| 1777758435 | 21.11° C | 100% | 1014.1 hPa | 15.49 mm | - | - | - |
| 1777758433 | 21.67° C | 100% | 1013.7 hPa | 17.02 mm | - | - | - |
| 1777758364 | 21.11° C | 100% | 1014.1 hPa | 15.49 mm | - | - | - |
| 1777758301 | 21.67° C | 100% | 1013.7 hPa | 17.02 mm | - | - | - |
| 1777758064 | 21.67° C | 100% | 1013.7 hPa | 17.02 mm | - | - | - |
| 1777757789 | 21.11° C | 100% | 1014.3 hPa | 17.02 mm | - | - | - |
| 1777757764 | 21.11° C | 100% | 1014.1 hPa | 17.02 mm | - | - | - |
| 1777757464 | 21.11° C | 100% | 1014.3 hPa | 17.02 mm | - | - | - |
| 1777757164 | 21.11° C | 100% | 1014.4 hPa | 17.02 mm | - | - | - |
| 1777756864 | 21.11° C | 100% | 1014.3 hPa | 16 mm | - | - | - |
| 1777756564 | 21.11° C | 100% | 1014.6 hPa | 15.75 mm | - | - | - |
| 1777756396 | 21.11° C | 100% | 1014.7 hPa | 15.24 mm | - | - | - |
| 1777756264 | 21.11° C | 100% | 1014.7 hPa | 15.24 mm | - | - | - |
| 1777755964 | 21.11° C | 100% | 1014.2 hPa | 14.99 mm | - | - | - |
| 1777755664 | 21.11° C | 100% | 1014 hPa | 14.22 mm | - | - | - |
| 1777755364 | 21.11° C | 100% | 1013.8 hPa | 13.21 mm | - | - | - |
* Rain latest hour (hover to see other rain measurements)
** Current wind speed in m/s (hover to see current wind gust speed)